Tracking 35237 objects as of 6-Sep-2026
HD Live streaming from Space Station
objects crossing your sky now

MIR DEB


MIR DEB is no longer on orbit


NORAD ID: 23822
Int'l Code: 1986-017JW
Launch date: February 19, 1986
Source: Commonwealth of Independent States (former USSR) (CIS)
Launch site: TYURATAM MISSILE AND SPACE COMPLEX (TTMTR)
Decay date: 1996-03-24

Note: This is SATELLITE DEBRIS
Your satellite tracking list
Your tracking list is empty




NASA's NSSDC Master Catalog

Two Line Element Set (TLE):
1 23822U 86017JW  96084.52785400  .06540537  34247+1  29785-1 0  9999
2 23822 051.6374 187.2262 0002098 065.6208 300.9979 16.14783755576821
Source of the keplerian elements: AFSPC